Regional Weather Roundup
Issued by NWS

Home | Current Version | Previous Version | Text Only | Print | Product List | Glossary On
Versions: 1 2 3 4 5 6 7 8 9 10 11 12 13 14 15 16 17 18 19 20 21 22 23 24 25 26 27 28 29 30 31 32 33 34 35 36 37 38 39 40 41 42 43 44 45 46 47 48 49 50
942
ASUS43 KLMK 142102
RWRKY
KENTUCKY REGIONAL WEATHER ROUNDUP
NATIONAL WEATHER SERVICE LOUISVILLE KY
400 PM EST THU DEC 14 2017

NOTE "FAIR" INDICATES FEW OR NO CLOUDS BELOW 12,000 FEET
WITH NO SIGNIFICANT WEATHER AND/OR OBSTRUCTIONS TO VISIBILITY.

KYZ001>023-026-027-061>063-070>075-142200-
WESTERN AND SOUTH CENTRAL KENTUCKY

CITY           SKY/WX    TMP DP  RH WIND       PRES   REMARKS
PADUCAH        CLOUDY    35  21  56 NW5       30.07R WCI  31
HENDERSON      CLOUDY    34  21  59 NW7       30.06F WCI  28
OWENSBORO      CLOUDY    34  21  59 VRB6      30.05F WCI  29
HOPKINSVILLE   CLOUDY    34  20  57 NW8       30.04F WCI  27
BOWLING GREEN  CLOUDY    37  24  59 SW9       30.05R WCI  30
GLASGOW        NOT AVBL
$$

KYZ024-025-028>034-038-045-046-053-142200-
NORTH CENTRAL KENTUCKY

CITY           SKY/WX    TMP DP  RH WIND       PRES   REMARKS
LOUISVILLE/SDF CLOUDY    34  18  52 W10       30.05R WCI  26
LOUISVILLE/LOU CLOUDY    34  16  47 N5        30.05R WCI  30
FORT KNOX      CLOUDY    33  19  56 N5        30.02R WCI  29
$$

KYZ035>037-039>044-047>052-055>060-089>105-142200-
NORTHEAST KENTUCKY

CITY           SKY/WX    TMP DP  RH WIND       PRES   REMARKS
LEXINGTON      MOSUNNY   37  16  42 VRB5      30.00R WCI  33
COVINGTON      PTSUNNY   27  17  66 NE6       30.03S WCI  20
FRANKFORT      MOSUNNY   36  15  42 VRB3      30.00R
$$

KYZ054-064>069-076>088-106>120-142200-
SOUTHEAST KENTUCKY

CITY           SKY/WX    TMP DP  RH WIND       PRES   REMARKS
JACKSON        PTSUNNY   34  20  56 NW5       29.96R WCI  30
LONDON         CLOUDY    36  22  56 N6        29.98R WCI  31
SOMERSET       NOT AVBL
MIDDLESBORO    PTSUNNY   40  26  57 CALM      29.96S
MONTICELLO     CLOUDY    36  24  62 NW7       30.02R WCI  30
$$





USA.gov is the U.S. government's official web portal to all federal, state and local government web resources and services.